EDW50 LSZH-VTSP

Flight info

Callsign EDW50
Flight time 10h 58m
Altitude 35000
Route DEGES Z2 TUNUM Z204 GEDSO DCT BERTA DCT MAGAM DCT TUVAR DCT ETIDA DCT WRN/N0469F370 DCT UDROS UM859 KARDE UL851 TBN UM11 REBLO M11 ERLEV L850 BAKUV N701 LARGI B701 TUGTA A909 NINOP/N0479F390 A909 LEMOD N644 DI A466 DPN L759 BBS/N0471F410 L759 SATVA SATVA1D
Aircraft A343/H-SDE2E3FGHIJ4J5M1RWXY/LB1D1

Departure

Time 2026-04-30 20:44
Airport Zürich Airport (LSZH)

Arrival

Time 2026-05-01 07:42
Airport Phuket International Airport (VTSP)
Time Latitude Longitude Altitude Speed Heading
2026-04-30 20:10 47.46035 8.55833 1415 ft 0 kts
2026-04-30 20:33 47.46033 8.55832 1408 ft 2 kts
2026-04-30 20:34 47.45985 8.55825 1410 ft 1 kts
2026-04-30 20:34 47.45945 8.55815 1415 ft 4 kts 80°
2026-04-30 20:35 47.45945 8.55778 1412 ft 4 kts 95°
2026-04-30 20:35 47.45948 8.55740 1407 ft 2 kts 96°
2026-04-30 20:35 47.45948 8.55737 1407 ft 0 kts 96°
2026-04-30 20:39 47.45947 8.55752 1413 ft 4 kts 96°
2026-04-30 20:39 47.45943 8.55814 1408 ft 6 kts 96°
2026-04-30 20:39 47.45939 8.55870 1413 ft 4 kts 96°
2026-04-30 20:40 47.45935 8.55927 1417 ft 5 kts 96°
2026-04-30 20:40 47.45930 8.56003 1416 ft 10 kts 96°
2026-04-30 20:40 47.45921 8.56138 1417 ft 16 kts 95°
2026-04-30 20:41 47.45920 8.56283 1419 ft 4 kts 64°
2026-04-30 20:41 47.45954 8.56314 1422 ft 8 kts 18°
2026-04-30 20:41 47.46007 8.56329 1421 ft 8 kts
2026-04-30 20:41 47.46070 8.56337 1420 ft 11 kts
2026-04-30 20:42 47.46147 8.56347 1418 ft 11 kts
2026-04-30 20:42 47.46216 8.56327 1418 ft 10 kts 321°
2026-04-30 20:42 47.46272 8.56250 1417 ft 36 kts 317°
2026-04-30 20:43 47.46612 8.55786 1408 ft 96 kts 317°
2026-04-30 20:43 47.47234 8.54934 1385 ft 145 kts 317°
2026-04-30 20:43 47.48040 8.53843 1694 ft 161 kts 319°
2026-04-30 20:44 47.49659 8.51535 2697 ft 172 kts 328°
2026-04-30 20:44 47.50632 8.50417 3005 ft 185 kts 329°
2026-04-30 20:44 47.51856 8.46633 3608 ft 233 kts 276°
2026-04-30 20:45 47.50616 8.42067 4224 ft 264 kts 210°
2026-04-30 20:45 47.48916 8.41294 4975 ft 254 kts 176°
2026-04-30 20:45 47.47235 8.41941 5721 ft 251 kts 148°
2026-04-30 20:46 47.45646 8.49052 7548 ft 267 kts 89°
2026-04-30 20:46 47.45674 8.51830 8168 ft 272 kts 89°
2026-04-30 20:47 47.45750 8.57478 9536 ft 277 kts 86°
2026-04-30 20:47 47.45877 8.60346 10158 ft 281 kts 86°
2026-04-30 20:48 47.46125 8.66285 10905 ft 304 kts 86°
2026-04-30 20:48 47.46249 8.69475 11201 ft 318 kts 86°
2026-04-30 20:48 47.46376 8.72813 11457 ft 332 kts 86°
2026-04-30 20:48 47.46506 8.76285 11729 ft 345 kts 86°
2026-04-30 20:49 47.46635 8.79900 12021 ft 357 kts 87°
2026-04-30 20:49 47.46512 8.83554 12475 ft 363 kts 98°
2026-04-30 20:49 47.46029 8.87245 13038 ft 368 kts 101°
2026-04-30 20:50 47.44931 8.94718 14148 ft 375 kts 100°
2026-04-30 20:50 47.44386 8.98516 14692 ft 378 kts 100°
2026-04-30 20:50 47.43841 9.02326 15195 ft 381 kts 100°
2026-04-30 20:50 47.43290 9.06177 15737 ft 384 kts 100°
2026-04-30 20:51 47.42736 9.09998 16245 ft 386 kts 100°
2026-04-30 20:51 47.41657 9.17834 17267 ft 391 kts 95°
2026-04-30 20:51 47.41600 9.21839 17812 ft 389 kts 82°
2026-04-30 20:52 47.41975 9.25814 18355 ft 390 kts 78°
2026-04-30 20:52 47.42523 9.29764 18827 ft 393 kts 75°
2026-04-30 20:52 47.43801 9.37618 19686 ft 399 kts 75°
2026-04-30 20:53 47.44456 9.41612 20114 ft 401 kts 75°
2026-04-30 20:53 47.45099 9.45650 20553 ft 404 kts 75°
2026-04-30 20:53 47.45730 9.49718 20997 ft 407 kts 75°
2026-04-30 20:54 47.46884 9.57973 21840 ft 414 kts 81°
2026-04-30 20:54 47.47046 9.62244 22240 ft 419 kts 88°
2026-04-30 20:54 47.46962 9.66513 22681 ft 422 kts 90°
2026-04-30 20:55 47.46536 9.75238 23424 ft 428 kts 91°
2026-04-30 20:55 47.46272 9.79636 23792 ft 431 kts 91°
2026-04-30 20:55 47.46003 9.84064 24105 ft 433 kts 91°
2026-04-30 20:56 47.45476 9.92913 24807 ft 435 kts 91°
2026-04-30 20:56 47.45217 9.97375 25133 ft 437 kts 91°
2026-04-30 20:56 47.44702 10.06353 25901 ft 437 kts 90°
2026-04-30 20:57 47.44444 10.10824 26312 ft 437 kts 90°
2026-04-30 20:57 47.44181 10.15309 26622 ft 438 kts 91°
2026-04-30 20:57 47.43757 10.19791 26911 ft 442 kts 95°
2026-04-30 20:58 47.42638 10.28717 27525 ft 446 kts 96°
2026-04-30 20:58 47.42035 10.33213 27833 ft 447 kts 96°
2026-04-30 20:58 47.41421 10.37722 28059 ft 448 kts 96°
2026-04-30 20:58 47.40799 10.42258 28324 ft 450 kts 96°
2026-04-30 20:59 47.39551 10.51303 29130 ft 448 kts 96°
2026-04-30 20:59 47.38941 10.55740 29561 ft 446 kts 96°
2026-04-30 21:00 47.37703 10.64691 30053 ft 446 kts 96°
2026-04-30 21:00 47.36455 10.73636 30763 ft 442 kts 96°
2026-04-30 21:01 47.35217 10.82461 31218 ft 442 kts 96°
2026-04-30 21:01 47.34592 10.86907 31554 ft 440 kts 95°
2026-04-30 21:01 47.33353 10.95705 32116 ft 437 kts 95°
2026-04-30 21:02 47.32734 11.00094 32324 ft 437 kts 95°
2026-04-30 21:02 47.32111 11.04476 32568 ft 436 kts 95°
2026-04-30 21:02 47.31493 11.08803 32760 ft 437 kts 95°
2026-04-30 21:02 47.30865 11.13192 32941 ft 437 kts 95°
2026-04-30 21:03 47.30236 11.17574 33100 ft 437 kts 95°
2026-04-30 21:03 47.29603 11.21966 33292 ft 437 kts 95°
2026-04-30 21:03 47.28972 11.26345 33481 ft 436 kts 95°
2026-04-30 21:03 47.28339 11.30700 33732 ft 434 kts 95°
2026-04-30 21:04 47.27712 11.34982 33976 ft 433 kts 95°
2026-04-30 21:04 47.27079 11.39334 34168 ft 433 kts 95°
2026-04-30 21:04 47.25624 11.48006 34475 ft 441 kts 102°
2026-04-30 21:05 47.24440 11.52160 34622 ft 450 kts 109°
2026-04-30 21:05 47.22842 11.56169 34766 ft 457 kts 115°
2026-04-30 21:05 47.21075 11.60076 34899 ft 459 kts 117°
2026-04-30 21:05 47.19232 11.63964 34994 ft 463 kts 117°
2026-04-30 21:06 47.15490 11.71668 35240 ft 465 kts 118°
2026-04-30 21:06 47.11702 11.79468 35289 ft 471 kts 118°
2026-04-30 21:07 47.08232 11.87529 35272 ft 458 kts 107°
2026-04-30 21:07 47.06048 11.96123 35300 ft 450 kts 101°
2026-04-30 21:08 47.04146 12.04890 35288 ft 449 kts 100°
2026-04-30 21:08 47.02287 12.13657 35291 ft 449 kts 100°
2026-04-30 21:09 47.00417 12.22346 35303 ft 450 kts 101°
2026-04-30 21:09 46.98512 12.31079 35308 ft 450 kts 101°
2026-04-30 21:10 46.96592 12.39828 35320 ft 451 kts 101°
2026-04-30 21:10 46.94672 12.48541 35308 ft 452 kts 101°
2026-04-30 21:11 46.92736 12.57284 35316 ft 451 kts 101°
2026-04-30 21:11 46.90826 12.66017 35311 ft 450 kts 100°
2026-04-30 21:12 46.88951 12.74703 35322 ft 451 kts 101°
2026-04-30 21:12 46.86955 12.83450 35335 ft 455 kts 102°
2026-04-30 21:13 46.84929 12.92265 35333 ft 458 kts 102°
2026-04-30 21:13 46.82913 13.01106 35341 ft 458 kts 102°
2026-04-30 21:14 46.80914 13.09900 35342 ft 458 kts 102°
2026-04-30 21:14 46.78900 13.18752 35342 ft 459 kts 102°
2026-04-30 21:15 46.76891 13.27547 35353 ft 460 kts 102°
2026-04-30 21:15 46.74854 13.36399 35355 ft 460 kts 102°
2026-04-30 21:16 46.72813 13.45257 35357 ft 460 kts 102°
2026-04-30 21:16 46.70762 13.54112 35373 ft 461 kts 103°
2026-04-30 21:17 46.68710 13.62935 35376 ft 462 kts 103°
2026-04-30 21:17 46.66640 13.71802 35373 ft 462 kts 103°
2026-04-30 21:18 46.64915 13.79167 35380 ft 462 kts 103°
2026-04-30 21:18 46.62827 13.88045 35384 ft 462 kts 103°
2026-04-30 21:19 46.60747 13.96850 35379 ft 463 kts 103°
2026-04-30 21:19 46.58644 14.05715 35382 ft 463 kts 103°
2026-04-30 21:20 46.56534 14.14580 35399 ft 463 kts 103°
2026-04-30 21:20 46.54414 14.23446 35399 ft 463 kts 103°
2026-04-30 21:21 46.52301 14.32256 35401 ft 465 kts 104°
2026-04-30 21:22 46.49083 14.45604 35395 ft 467 kts 104°
2026-04-30 21:23 46.44499 14.63256 35425 ft 473 kts 114°
2026-04-30 21:23 46.39377 14.75533 35400 ft 479 kts 117°
2026-04-30 21:24 46.35785 14.83674 35404 ft 480 kts 118°
2026-04-30 21:24 46.32194 14.91808 35401 ft 479 kts 117°
2026-04-30 21:25 46.26822 15.04007 35400 ft 481 kts 118°
2026-04-30 21:26 46.21421 15.16241 35400 ft 481 kts 118°
2026-04-30 21:27 46.16006 15.28448 35396 ft 481 kts 118°
2026-04-30 21:27 46.12390 15.36573 35399 ft 483 kts 119°
2026-04-30 21:28 46.06919 15.48817 35401 ft 485 kts 119°
2026-04-30 21:29 46.01450 15.61005 35396 ft 485 kts 119°
2026-04-30 21:29 45.96559 15.73630 35401 ft 478 kts 107°
2026-04-30 21:30 45.94328 15.82640 35399 ft 477 kts 104°
2026-04-30 21:31 45.89083 16.05230 35404 ft 479 kts 105°
2026-04-30 21:32 45.85878 16.18778 35396 ft 480 kts 105°
2026-04-30 21:32 45.83724 16.27819 35394 ft 479 kts 105°
2026-04-30 21:33 45.80469 16.41418 35395 ft 480 kts 105°
2026-04-30 21:34 45.78293 16.50465 35384 ft 480 kts 105°
2026-04-30 21:34 45.75022 16.63999 35392 ft 480 kts 105°
2026-04-30 21:35 45.72824 16.73050 35381 ft 482 kts 106°
2026-04-30 21:35 45.70607 16.82141 35382 ft 484 kts 106°
2026-04-30 21:36 45.68377 16.91245 35378 ft 484 kts 106°
2026-04-30 21:37 45.63902 17.09408 35383 ft 485 kts 107°
2026-04-30 21:37 45.61648 17.18502 35379 ft 486 kts 107°
2026-04-30 21:38 45.59377 17.27625 35381 ft 486 kts 107°
2026-04-30 21:38 45.57104 17.36720 35381 ft 486 kts 107°
2026-04-30 21:39 45.54827 17.45799 35384 ft 487 kts 107°
2026-04-30 21:39 45.52550 17.54842 35381 ft 488 kts 107°
2026-04-30 21:40 45.50251 17.63937 35379 ft 488 kts 107°
2026-04-30 21:40 45.47941 17.73034 35379 ft 488 kts 107°
2026-04-30 21:41 45.45622 17.82135 35379 ft 488 kts 108°
2026-04-30 21:41 45.43301 17.91206 35372 ft 488 kts 108°
2026-04-30 21:42 45.40964 18.00301 35373 ft 488 kts 108°
2026-04-30 21:42 45.38621 18.09385 35370 ft 488 kts 108°
2026-04-30 21:43 45.36276 18.18448 35369 ft 489 kts 108°
2026-04-30 21:43 45.33918 18.27520 35366 ft 489 kts 108°
2026-04-30 21:44 45.31568 18.36526 35365 ft 489 kts 108°
2026-04-30 21:44 45.29192 18.45599 35378 ft 489 kts 108°
2026-04-30 21:45 45.26810 18.54661 35363 ft 489 kts 108°
2026-04-30 21:45 45.24431 18.63676 35362 ft 490 kts 109°
2026-04-30 21:46 45.22027 18.72747 35360 ft 489 kts 109°
2026-04-30 21:46 45.19634 18.81747 35359 ft 490 kts 109°
2026-04-30 21:47 45.17218 18.90798 35355 ft 491 kts 109°
2026-04-30 21:47 45.14789 18.99863 35354 ft 491 kts 109°
2026-04-30 21:48 45.12163 19.08735 35357 ft 492 kts 117°
2026-04-30 21:48 45.08845 19.17239 35353 ft 493 kts 118°
2026-04-30 21:49 45.05406 19.25641 35348 ft 493 kts 118°
2026-04-30 21:49 45.01936 19.34048 35346 ft 493 kts 118°
2026-04-30 21:50 44.98498 19.42388 35347 ft 493 kts 118°
2026-04-30 21:50 44.95047 19.50758 35346 ft 493 kts 119°
2026-04-30 21:51 44.91586 19.59133 35343 ft 493 kts 119°
2026-04-30 21:51 44.88139 19.67449 35341 ft 493 kts 119°
2026-04-30 21:52 44.84655 19.75828 35338 ft 493 kts 119°
2026-04-30 21:52 44.81192 19.84134 35326 ft 494 kts 119°
2026-04-30 21:53 44.77684 19.92521 35326 ft 496 kts 120°
2026-04-30 21:53 44.74195 20.00836 35320 ft 496 kts 120°
2026-04-30 21:54 44.70676 20.09200 35322 ft 496 kts 120°
2026-04-30 21:54 44.67158 20.17536 35319 ft 498 kts 120°
2026-04-30 21:55 44.63608 20.25923 35321 ft 498 kts 120°
2026-04-30 21:55 44.60054 20.34297 35319 ft 498 kts 120°
2026-04-30 21:56 44.56514 20.42611 35321 ft 498 kts 120°
2026-04-30 21:56 44.52953 20.50951 35320 ft 498 kts 120°
2026-04-30 21:57 44.49406 20.59234 35315 ft 498 kts 120°
2026-04-30 21:57 44.45828 20.67565 35309 ft 498 kts 121°
2026-04-30 21:58 44.42237 20.75903 35317 ft 500 kts 121°
2026-04-30 21:58 44.38661 20.84182 35312 ft 500 kts 121°
2026-04-30 21:59 44.35652 20.91128 35312 ft 500 kts 121°
2026-04-30 22:00 44.30228 21.03606 35313 ft 501 kts 121°
2026-04-30 22:00 44.24796 21.16052 35314 ft 502 kts 121°
2026-04-30 22:01 44.21146 21.24383 35308 ft 502 kts 121°
2026-04-30 22:01 44.17514 21.32649 35313 ft 502 kts 121°
2026-04-30 22:02 44.13855 21.40954 35318 ft 502 kts 122°
2026-04-30 22:02 44.10202 21.49220 35301 ft 503 kts 122°
2026-04-30 22:03 44.06513 21.57544 35321 ft 504 kts 122°
2026-04-30 22:03 44.02839 21.65813 35326 ft 505 kts 122°
2026-04-30 22:04 43.99125 21.74144 35328 ft 506 kts 122°
2026-04-30 22:05 43.93566 21.86572 35329 ft 505 kts 122°
2026-04-30 22:05 43.89859 21.94829 35337 ft 506 kts 122°
2026-04-30 22:06 43.86121 22.03131 35341 ft 507 kts 122°
2026-04-30 22:06 43.80517 22.15536 35338 ft 507 kts 122°
2026-04-30 22:07 43.76765 22.23811 35341 ft 507 kts 122°
2026-04-30 22:07 43.73001 22.32089 35340 ft 507 kts 123°
2026-04-30 22:08 43.69597 22.40559 35339 ft 507 kts 111°
2026-04-30 22:08 43.68574 22.45231 35347 ft 506 kts 100°
2026-04-30 22:08 43.68054 22.50037 35340 ft 506 kts 96°
2026-04-30 22:09 43.67393 22.59691 35339 ft 507 kts 94°
2026-04-30 22:09 43.66847 22.69428 35346 ft 507 kts 94°
2026-04-30 22:10 43.66276 22.79090 35344 ft 506 kts 94°
2026-04-30 22:10 43.65665 22.88798 35345 ft 507 kts 94°
2026-04-30 22:11 43.64717 23.03342 35351 ft 508 kts 95°
2026-04-30 22:12 43.64072 23.13085 35353 ft 508 kts 95°
2026-04-30 22:12 43.63424 23.22768 35353 ft 508 kts 95°
2026-04-30 22:13 43.62767 23.32466 35354 ft 509 kts 95°
2026-04-30 22:13 43.62099 23.42208 35356 ft 509 kts 95°
2026-04-30 22:14 43.61421 23.51957 35358 ft 509 kts 95°
2026-04-30 22:14 43.60740 23.61633 35357 ft 509 kts 95°
2026-04-30 22:15 43.60045 23.71403 35363 ft 511 kts 96°
2026-04-30 22:15 43.59339 23.81186 35369 ft 512 kts 96°
2026-04-30 22:16 43.58630 23.90907 35363 ft 512 kts 96°
2026-04-30 22:17 43.57178 24.10457 35371 ft 512 kts 96°
2026-04-30 22:17 43.56072 24.25059 35370 ft 512 kts 96°
2026-04-30 22:18 43.54940 24.39742 35374 ft 513 kts 96°
2026-04-30 22:19 43.53791 24.54397 35368 ft 515 kts 96°
2026-04-30 22:20 43.52618 24.69107 35369 ft 515 kts 96°
2026-04-30 22:20 43.51421 24.83888 35365 ft 517 kts 97°
2026-04-30 22:21 43.50614 24.93706 35356 ft 517 kts 97°
2026-04-30 22:21 43.49793 25.03595 35355 ft 517 kts 97°
2026-04-30 22:22 43.48972 25.13386 35352 ft 519 kts 97°
2026-04-30 22:22 43.48131 25.23307 35344 ft 520 kts 97°
2026-04-30 22:23 43.47287 25.33166 35344 ft 520 kts 97°
2026-04-30 22:23 43.46434 25.43016 35342 ft 519 kts 97°
2026-04-30 22:24 43.45569 25.52923 35331 ft 520 kts 98°
2026-04-30 22:24 43.44692 25.62853 35327 ft 521 kts 98°
2026-04-30 22:25 43.43814 25.72694 35329 ft 521 kts 98°
2026-04-30 22:25 43.42925 25.82563 35327 ft 521 kts 98°
2026-04-30 22:26 43.41573 25.97383 35315 ft 521 kts 98°
2026-04-30 22:27 43.40658 26.07297 35312 ft 521 kts 98°
2026-04-30 22:27 43.39274 26.22113 35302 ft 522 kts 99°
2026-04-30 22:28 43.37862 26.37014 35309 ft 525 kts 99°
2026-04-30 22:29 43.35944 26.56927 35293 ft 525 kts 99°
2026-04-30 22:31 43.32493 26.91863 35279 ft 527 kts 99°
2026-04-30 22:32 43.29959 27.16821 35276 ft 530 kts 100°
2026-04-30 22:33 43.27358 27.41885 35255 ft 532 kts 100°
2026-04-30 22:35 43.24693 27.67020 35224 ft 532 kts 101°
2026-04-30 22:36 43.22436 27.87098 35737 ft 527 kts 104°
2026-04-30 22:36 43.21648 27.92007 35990 ft 524 kts 106°
2026-04-30 22:37 43.19074 28.06488 36406 ft 523 kts 106°
2026-04-30 22:37 43.18231 28.11344 36525 ft 524 kts 105°
2026-04-30 22:37 43.16581 28.21080 36868 ft 522 kts 105°
2026-04-30 22:38 43.14960 28.30757 37184 ft 520 kts 105°
2026-04-30 22:39 43.12517 28.45236 37234 ft 522 kts 105°
2026-04-30 22:40 43.07838 28.72595 37211 ft 521 kts 106°
2026-04-30 22:41 43.03642 28.96766 37206 ft 521 kts 106°
2026-04-30 22:43 42.98552 29.25659 37192 ft 523 kts 107°
2026-04-30 22:44 42.95107 29.44959 37184 ft 523 kts 107°
2026-04-30 22:45 42.89886 29.73829 37180 ft 523 kts 107°
2026-04-30 22:47 42.84587 30.02683 37164 ft 523 kts 107°
2026-04-30 22:48 42.81019 30.21862 37157 ft 523 kts 108°
2026-04-30 22:49 42.75607 30.50597 37137 ft 522 kts 108°
2026-04-30 22:51 42.71822 30.79849 37125 ft 526 kts 100°
2026-04-30 22:52 42.70333 30.94612 37124 ft 526 kts 101°
2026-04-30 22:53 42.68286 31.14305 37104 ft 526 kts 101°
2026-04-30 22:53 42.66723 31.29081 37103 ft 526 kts 101°
2026-04-30 22:55 42.64087 31.53607 37101 ft 526 kts 101°
2026-04-30 22:56 42.61933 31.73287 37086 ft 525 kts 101°
2026-04-30 22:57 42.59206 31.97749 37075 ft 524 kts 102°
2026-04-30 22:58 42.57016 32.17280 37067 ft 523 kts 102°
2026-04-30 22:59 42.53622 32.46504 37054 ft 525 kts 102°
2026-05-01 07:23 9.01225 97.47503 24095 ft 455 kts 137°
2026-05-01 07:23 8.96597 97.51819 22882 ft 451 kts 137°
2026-05-01 07:24 8.94321 97.53941 22249 ft 448 kts 137°
2026-05-01 07:24 8.92049 97.56060 21610 ft 439 kts 137°
2026-05-01 07:24 8.89819 97.58139 20972 ft 432 kts 137°
2026-05-01 07:24 8.87621 97.60187 20350 ft 427 kts 137°
2026-05-01 07:25 8.85444 97.62216 19743 ft 423 kts 137°
2026-05-01 07:25 8.83294 97.64222 19148 ft 419 kts 137°
2026-05-01 07:25 8.81146 97.66212 18564 ft 416 kts 137°
2026-05-01 07:25 8.79015 97.68185 17976 ft 415 kts 137°
2026-05-01 07:26 8.76917 97.70128 17313 ft 412 kts 137°
2026-05-01 07:26 8.74806 97.72084 16669 ft 410 kts 137°
2026-05-01 07:26 8.72704 97.74032 16036 ft 408 kts 137°
2026-05-01 07:26 8.70617 97.75966 15399 ft 405 kts 137°
2026-05-01 07:27 8.68532 97.77898 14796 ft 403 kts 136°
2026-05-01 07:27 8.66475 97.79804 14189 ft 400 kts 136°
2026-05-01 07:27 8.64457 97.81673 13622 ft 397 kts 136°
2026-05-01 07:27 8.62424 97.83556 12962 ft 394 kts 136°
2026-05-01 07:28 8.60430 97.85403 12316 ft 380 kts 136°
2026-05-01 07:28 8.58565 97.87129 11814 ft 346 kts 136°
2026-05-01 07:28 8.56860 97.88705 11452 ft 316 kts 136°
2026-05-01 07:28 8.55290 97.90158 11076 ft 299 kts 136°
2026-05-01 07:29 8.53788 97.91551 10734 ft 295 kts 136°
2026-05-01 07:29 8.52285 97.92945 10394 ft 292 kts 136°
2026-05-01 07:29 8.50792 97.94328 10046 ft 290 kts 136°
2026-05-01 07:29 8.49292 97.95678 9778 ft 285 kts 140°
2026-05-01 07:30 8.47552 97.96644 9423 ft 289 kts 161°
2026-05-01 07:30 8.45595 97.97100 9095 ft 288 kts 168°
2026-05-01 07:30 8.43614 97.97440 8772 ft 287 kts 168°
2026-05-01 07:30 8.41646 97.97769 8425 ft 286 kts 168°
2026-05-01 07:31 8.39689 97.98103 8140 ft 283 kts 168°
2026-05-01 07:31 8.34132 97.99068 7668 ft 262 kts 167°
2026-05-01 07:32 8.30574 97.99695 7143 ft 258 kts 167°
2026-05-01 07:32 8.28793 97.99937 6882 ft 258 kts 171°
2026-05-01 07:33 8.25240 98.00263 6382 ft 255 kts 171°
2026-05-01 07:33 8.23474 98.00433 6088 ft 254 kts 171°
2026-05-01 07:33 8.19997 98.00783 5531 ft 251 kts 171°
2026-05-01 07:34 8.18263 98.00962 5487 ft 250 kts 172°
2026-05-01 07:34 8.14807 98.01298 4748 ft 246 kts 172°
2026-05-01 07:34 8.13131 98.01455 4636 ft 237 kts 171°
2026-05-01 07:35 8.11568 98.01777 4495 ft 227 kts 157°
2026-05-01 07:35 8.10229 98.02544 4317 ft 219 kts 137°
2026-05-01 07:35 8.09269 98.03712 4070 ft 215 kts 118°
2026-05-01 07:35 8.08789 98.05121 3965 ft 209 kts 99°
2026-05-01 07:36 8.08804 98.06563 3951 ft 206 kts 82°
2026-05-01 07:36 8.09023 98.07994 3953 ft 206 kts 84°
2026-05-01 07:36 8.09200 98.09413 3964 ft 206 kts 85°
2026-05-01 07:36 8.09358 98.10855 3842 ft 205 kts 86°
2026-05-01 07:37 8.09592 98.13253 3347 ft 209 kts 86°
2026-05-01 07:37 8.09777 98.15200 2966 ft 206 kts 86°
2026-05-01 07:37 8.09908 98.16580 2682 ft 190 kts 86°
2026-05-01 07:38 8.09989 98.17441 2499 ft 182 kts 85°
2026-05-01 07:38 8.10103 98.18651 2280 ft 163 kts 87°
2026-05-01 07:38 8.10296 98.20714 1936 ft 132 kts 88°
2026-05-01 07:39 8.10380 98.21625 1762 ft 129 kts 88°
2026-05-01 07:39 8.10458 98.22519 1553 ft 129 kts 86°
2026-05-01 07:39 8.10710 98.24348 1105 ft 131 kts 85°
2026-05-01 07:40 8.10804 98.25261 917 ft 130 kts 88°
2026-05-01 07:40 8.10831 98.26185 815 ft 133 kts 91°
2026-05-01 07:40 8.10917 98.27108 722 ft 131 kts 87°
2026-05-01 07:40 8.10997 98.28011 582 ft 127 kts 86°
2026-05-01 07:41 8.11072 98.28895 431 ft 130 kts 85°
2026-05-01 07:41 8.11150 98.29816 236 ft 132 kts 86°
2026-05-01 07:41 8.11300 98.31407 91 ft 74 kts 85°
2026-05-01 07:42 8.11342 98.31845 91 ft 56 kts 84°
2026-05-01 07:42 8.11372 98.32196 90 ft 45 kts 86°
2026-05-01 07:42 8.11350 98.32353 92 ft 19 kts 110°
2026-05-01 07:42 8.11314 98.32421 88 ft 8 kts 134°
2026-05-01 07:43 8.11268 98.32417 89 ft 7 kts 228°
2026-05-01 07:43 8.11251 98.32337 90 ft 16 kts 263°
2026-05-01 07:43 8.11227 98.32086 87 ft 19 kts 265°
2026-05-01 07:44 8.11201 98.31821 91 ft 20 kts 264°
2026-05-01 07:44 8.11170 98.31517 88 ft 23 kts 264°
2026-05-01 07:45 8.11147 98.29791 242 ft 132 kts 86°
2026-05-01 07:45 8.11231 98.30691 94 ft 124 kts 85°
2026-05-01 07:45 8.11272 98.31106 92 ft 99 kts 84°
2026-05-01 07:46 8.11177 98.30093 175 ft 99 kts 85°
2026-05-01 07:46 8.11195 98.30294 139 ft 129 kts 85°
2026-05-01 07:46 8.11175 98.30068 180 ft 129 kts 85°
2026-05-01 07:47 8.11211 98.30469 111 ft 129 kts 85°
2026-05-01 07:47 8.11275 98.31138 93 ft 97 kts 84°
2026-05-01 07:47 8.11298 98.31389 91 ft 75 kts 85°